This is the latest recevied weather packets stored in our database for station/object OE7AOT-2. If no packets are shown the sender has not sent any weather packets the latest 1 day(s).
| Time | Temp. | Humidity | Pressure | Rain* | Wind** | Luminosity | Snow |
|---|---|---|---|---|---|---|---|
| 1778067308 | 42.78° C | 49% | 914.9 hPa | 0 mm | - | - | - |
| 1778067171 | 43.33° C | 47% | 915 hPa | 0 mm | - | - | - |
| 1778067034 | 42.22° C | 46% | 915.1 hPa | 0 mm | - | - | - |
| 1778066897 | 42.78° C | 46% | 915.1 hPa | 0 mm | - | - | - |
| 1778066829 | 43.33° C | 46% | 915.1 hPa | 0 mm | - | - | - |
| 1778066692 | 42.22° C | 46% | 915 hPa | 0 mm | - | - | - |
| 1778066555 | 41.11° C | 47% | 915.1 hPa | 0 mm | - | - | - |
| 1778066418 | 40° C | 48% | 915.2 hPa | 0 mm | - | - | - |
| 1778066213 | 42.22° C | 47% | 915 hPa | 0 mm | - | - | - |
| 1778066145 | 43.89° C | 45% | 915 hPa | 0 mm | - | - | - |
| 1778066076 | 43.33° C | 45% | 915 hPa | 0 mm | - | - | - |
| 1778065939 | 43.33° C | 45% | 915 hPa | 0 mm | - | - | - |
| 1778065665 | 43.89° C | 46% | 915.2 hPa | 0 mm | - | - | - |
| 1778065597 | 43.89° C | 47% | 915.1 hPa | 0 mm | - | - | - |
| 1778065460 | 43.33° C | 49% | 915.2 hPa | 0 mm | - | - | - |
| 1778065186 | 41.67° C | 50% | 915.2 hPa | 0 mm | - | - | - |
| 1778065118 | 41.11° C | 50% | 915.2 hPa | 0 mm | - | - | - |
| 1778064981 | 40° C | 50% | 915.4 hPa | 0 mm | - | - | - |
| 1778064844 | 39.44° C | 49% | 915.4 hPa | 0 mm | - | - | - |
| 1778064707 | 39.44° C | 50% | 915.4 hPa | 0 mm | - | - | - |
| 1778064570 | 39.44° C | 49% | 915.4 hPa | 0 mm | - | - | - |
| 1778064502 | 39.44° C | 50% | 915.5 hPa | 0 mm | - | - | - |
| 1778064365 | 40° C | 52% | 915.5 hPa | 0 mm | - | - | - |
| 1778064296 | 40° C | 54% | 915.4 hPa | 0 mm | - | - | - |
| 1778063886 | 37.78° C | 55% | 915.6 hPa | 0 mm | - | - | - |
* Rain latest hour (hover to see other rain measurements)
** Current wind speed in m/s (hover to see current wind gust speed)